Regional Weather Roundup
Issued by NWS

Home | Current Version | Previous Version | Text Only | Print | Product List | Glossary On
Versions: 1 2 3 4 5 6 7 8 9 10 11 12 13 14 15 16 17 18 19 20 21 22 23 24 25 26 27 28 29 30 31 32 33 34 35 36 37 38 39 40 41 42 43 44 45 46 47 48 49 50
000
ASUS45 KBOI 261910
RWRID
WEATHER ROUNDUP FOR IDAHO
NATIONAL WEATHER SERVICE BOISE ID
100 PM MDT THU MAR 26 2015

NOTE: "FAIR" INDICATES FEW OR NO CLOUDS BELOW 12000 FEET
WITH NO SIGNIFICANT WEATHER AND/OR OBSTRUCTIONS TO VISIBILITY

IDZ012-014-262000-
SOUTHWEST IDAHO


CITY           SKY/WX    TMP DP  RH WIND       PRES   REMARKS
BOISE          SUNNY     54  37  52 NW6       30.40F
CALDWELL       SUNNY     55  37  50 N7        30.42F
MOUNTAIN HOME  SUNNY     55  38  53 W3        30.40F
$$

IDZ016-017-262000-
SOUTHCENTRAL IDAHO


CITY           SKY/WX    TMP DP  RH WIND       PRES   REMARKS
BURLEY         SUNNY     56  33  42 SW9       30.39F
JEROME         SUNNY     52  34  50 SW9       30.41F
TWIN FALLS     SUNNY     57  35  43 VRB7      30.40F
$$

IDZ019>023-262000-
SOUTHEAST IDAHO


CITY           SKY/WX    TMP DP  RH WIND       PRES   REMARKS
IDAHO FALLS    MOSUNNY   52  31  44 SW14G21   30.39S
POCATELLO      MOSUNNY   54  33  45 W18       30.41F
REXBURG        SUNNY     50  31  48 SW8       30.38F
$$

IDZ006-010-011-018-031-032-262000-
CENTRAL IDAHO MOUNTAINS


CITY           SKY/WX    TMP DP  RH WIND       PRES   REMARKS
MCCALL         SUNNY     47  37  68 CALM      30.39F
HAILEY         MOSUNNY   52  32  46 E13       30.40F
STANLEY          N/A     47  30  51 N7        30.42F
SALMON         MOSUNNY  N/A N/A N/A NW5       30.34F
CHALLIS        SUNNY     54  29  38 VRB3      30.37F
$$

IDZ002-004-006-007-026-262000-
NORTHERN IDAHO


CITY           SKY/WX    TMP DP  RH WIND       PRES   REMARKS
LEWISTON       PTSUNNY   60  44  55 S5        30.32F
LOWELL           N/A     56  45  66 CALM      30.39F
COEUR D`ALENE  PTSUNNY   54  45  71 S9        30.33R
MULLAN PASS    FOG       37  37 100 SW6       30.34R VSB 1/4 WCI  32
$$



USA.gov is the U.S. government's official web portal to all federal, state and local government web resources and services.